Terminal Aerodrome Forecast
Issued by NWS Cleveland, OH

Home | Current Version | Previous Version | Text Only | Print | Product List | Glossary Off
Versions: 1 2 3 4 5 6 7 8 9 10 11 12 13 14 15 16 17

000
FTUS41 KCLE 021100
TAFMFD
TAF
KMFD 021129Z 0212/0312 VRB03KT P6SM SCT080 OVC200
     FM021500 26008KT P6SM SCT060 BKN200
     FM030100 VRB03KT P6SM SKC=

USA.gov is the U.S. government's official web portal to all federal, state and local government web resources and services.